Time,TemperatureF,DewpointF,PressureIn,WindDirection,WindDirectionDegrees,WindSpeedMPH,WindSpeedGustMPH,Humidity,HourlyPrecipIn,Conditions,Clouds,dailyrainin,SoftwareType,DateUTC
2013-05-25 00:00:00,45.4,40.8,30.28,East,87,0.0,0.0,84,0.00,,,0.10,Wunderground v.1.13,2013-05-25 04:00:00,
2013-05-25 00:10:00,44.5,40.3,30.27,East,87,0.0,0.0,85,0.00,,,0.00,Wunderground v.1.13,2013-05-25 04:10:00,
2013-05-25 00:20:00,43.5,40.2,30.28,ENE,69,0.0,0.0,88,0.00,,,0.00,Wunderground v.1.13,2013-05-25 04:20:00,
2013-05-25 00:23:00,44.0,40.4,30.27,North,-999,0.0,0.0,87,0.00,,,-99.99,WeatherLink 6.0.2,2013-05-25 04:23:00,
2013-05-25 00:30:00,42.8,39.5,30.27,ENE,69,0.0,0.0,88,0.00,,,0.00,Wunderground v.1.13,2013-05-25 04:30:00,
2013-05-25 00:40:00,42.4,39.1,30.28,ENE,69,0.0,0.0,88,0.00,,,0.00,Wunderground v.1.13,2013-05-25 04:40:00,
2013-05-25 00:50:00,42.3,39.9,30.27,ENE,69,0.0,0.0,91,0.00,,,0.00,Wunderground v.1.13,2013-05-25 04:50:00,
2013-05-25 01:00:00,42.1,39.9,30.27,ENE,69,0.0,0.0,92,0.00,,,0.00,Wunderground v.1.13,2013-05-25 05:00:00,
2013-05-25 01:09:00,41.8,39.6,30.27,ENE,69,0.0,0.0,92,0.00,,,0.00,Wunderground v.1.13,2013-05-25 05:09:00,
2013-05-25 01:20:00,41.5,39.6,30.27,ENE,69,0.0,0.0,93,0.00,,,0.00,Wunderground v.1.13,2013-05-25 05:20:00,
2013-05-25 01:30:00,41.2,39.3,30.27,ENE,69,0.0,0.0,93,0.00,,,0.00,Wunderground v.1.13,2013-05-25 05:30:00,
2013-05-25 01:39:00,41.0,39.1,30.27,ENE,69,0.0,0.0,93,0.00,,,0.00,Wunderground v.1.13,2013-05-25 05:39:00,
2013-05-25 01:50:00,40.4,38.8,30.28,ENE,69,0.0,0.0,94,0.00,,,0.00,Wunderground v.1.13,2013-05-25 05:50:00,
2013-05-25 02:00:00,40.0,38.7,30.28,ENE,69,0.0,0.0,95,0.00,,,0.00,Wunderground v.1.13,2013-05-25 06:00:00,
2013-05-25 02:10:00,39.8,38.5,30.28,ENE,69,0.0,0.0,95,0.00,,,0.00,Wunderground v.1.13,2013-05-25 06:10:00,
2013-05-25 02:20:00,39.6,38.3,30.28,ENE,69,0.0,0.0,95,0.00,,,0.00,Wunderground v.1.13,2013-05-25 06:20:00,
2013-05-25 02:30:00,39.5,38.5,30.28,ENE,69,0.0,0.0,96,0.00,,,0.00,Wunderground v.1.13,2013-05-25 06:30:00,
2013-05-25 02:40:00,39.4,38.4,30.28,ENE,69,0.0,0.0,96,0.00,,,0.00,Wunderground v.1.13,2013-05-25 06:40:00,
2013-05-25 02:50:00,39.2,38.2,30.27,ENE,69,0.0,0.0,96,0.00,,,0.00,Wunderground v.1.13,2013-05-25 06:50:00,
2013-05-25 02:59:00,39.0,38.0,30.26,ENE,69,0.0,0.0,96,0.00,,,0.00,Wunderground v.1.13,2013-05-25 06:59:00,
2013-05-25 03:00:00,39.0,38.0,30.27,North,-999,0.0,0.0,96,0.00,,,-99.99,WeatherLink 6.0.2,2013-05-25 07:00:00,
2013-05-25 03:10:00,38.8,37.8,30.27,ENE,69,0.0,0.0,96,0.00,,,0.00,Wunderground v.1.13,2013-05-25 07:10:00,
2013-05-25 03:20:00,38.7,37.7,30.28,NE,36,0.0,0.0,96,0.00,,,0.00,Wunderground v.1.13,2013-05-25 07:20:00,
2013-05-25 03:30:00,38.6,37.6,30.27,NE,36,0.0,0.0,96,0.00,,,0.00,Wunderground v.1.13,2013-05-25 07:30:00,
2013-05-25 03:40:00,38.6,37.8,30.27,NE,36,0.0,0.0,97,0.00,,,0.00,Wunderground v.1.13,2013-05-25 07:40:00,
2013-05-25 03:50:00,38.3,37.5,30.28,NE,36,0.0,0.0,97,0.00,,,0.00,Wunderground v.1.13,2013-05-25 07:50:00,
2013-05-25 04:00:00,38.3,37.5,30.28,NE,36,0.0,0.0,97,0.00,,,0.00,Wunderground v.1.13,2013-05-25 08:00:00,
2013-05-25 04:10:00,38.1,37.3,30.29,NE,36,0.0,0.0,97,0.00,,,0.00,Wunderground v.1.13,2013-05-25 08:10:00,
2013-05-25 04:20:00,38.0,37.2,30.29,NE,36,0.0,0.0,97,0.00,,,0.00,Wunderground v.1.13,2013-05-25 08:20:00,
2013-05-25 04:30:00,37.8,37.0,30.29,NE,36,0.0,0.0,97,0.00,,,0.00,Wunderground v.1.13,2013-05-25 08:30:00,
2013-05-25 04:40:00,37.9,37.1,30.29,NNE,13,0.0,0.0,97,0.00,,,0.00,Wunderground v.1.13,2013-05-25 08:40:00,
2013-05-25 04:50:00,37.5,36.7,30.29,NNE,13,0.0,0.0,97,0.00,,,0.00,Wunderground v.1.13,2013-05-25 08:50:00,
2013-05-25 05:00:00,37.5,36.7,30.29,NNE,13,0.0,0.0,97,0.00,,,0.00,Wunderground v.1.13,2013-05-25 09:00:00,
2013-05-25 05:10:00,37.5,37.0,30.30,NNE,13,0.0,0.0,98,0.00,,,0.00,Wunderground v.1.13,2013-05-25 09:10:00,
2013-05-25 05:20:00,37.5,37.0,30.30,NNE,13,0.0,0.0,98,0.00,,,0.00,Wunderground v.1.13,2013-05-25 09:20:00,
2013-05-25 05:30:00,37.5,37.0,30.30,NNE,13,0.0,0.0,98,0.00,,,0.00,Wunderground v.1.13,2013-05-25 09:30:00,
2013-05-25 05:40:00,37.4,36.9,30.30,NNE,13,0.0,0.0,98,0.00,,,0.00,Wunderground v.1.13,2013-05-25 09:40:00,
2013-05-25 05:50:00,37.2,36.7,30.30,NNE,13,0.0,0.0,98,0.00,,,0.00,Wunderground v.1.13,2013-05-25 09:50:00,
2013-05-25 06:00:00,37.3,36.8,30.30,NNE,13,0.0,0.0,98,0.00,,,0.00,Wunderground v.1.13,2013-05-25 10:00:00,
2013-05-25 06:10:00,37.3,36.8,30.31,NNE,13,0.0,0.0,98,0.00,,,0.00,Wunderground v.1.13,2013-05-25 10:10:00,
2013-05-25 06:20:00,37.1,36.6,30.32,NNE,13,0.0,0.0,98,0.00,,,0.00,Wunderground v.1.13,2013-05-25 10:20:00,
2013-05-25 06:30:00,37.1,36.6,30.32,NNE,13,0.0,0.0,98,0.00,,,0.00,Wunderground v.1.13,2013-05-25 10:30:00,
2013-05-25 06:39:00,37.1,36.6,30.33,NNE,13,0.0,0.0,98,0.00,,,0.00,Wunderground v.1.13,2013-05-25 10:39:00,
2013-05-25 06:50:00,37.1,36.6,30.33,NNE,13,0.0,0.0,98,0.00,,,0.00,Wunderground v.1.13,2013-05-25 10:50:00,
2013-05-25 07:00:00,37.3,36.8,30.32,NNE,13,0.0,0.0,98,0.00,,,0.00,Wunderground v.1.13,2013-05-25 11:00:00,
2013-05-25 07:10:00,37.6,37.1,30.32,NNE,13,0.0,0.0,98,0.00,,,0.00,Wunderground v.1.13,2013-05-25 11:10:00,
2013-05-25 07:20:00,37.7,37.2,30.32,NNE,13,0.0,0.0,98,0.00,,,0.00,Wunderground v.1.13,2013-05-25 11:20:00,
2013-05-25 07:30:00,37.5,37.0,30.33,NNE,13,0.0,0.0,98,0.00,,,0.00,Wunderground v.1.13,2013-05-25 11:30:00,
2013-05-25 07:40:00,37.4,36.9,30.33,NNE,13,0.0,0.0,98,0.00,,,0.00,Wunderground v.1.13,2013-05-25 11:40:00,
2013-05-25 07:50:00,37.7,37.2,30.32,NNE,13,0.0,0.0,98,0.00,,,0.00,Wunderground v.1.13,2013-05-25 11:50:00,
2013-05-25 08:00:00,37.8,37.3,30.32,NNE,13,0.0,0.0,98,0.00,,,0.00,Wunderground v.1.13,2013-05-25 12:00:00,
2013-05-25 08:10:00,38.1,37.6,30.32,NNE,16,0.0,0.0,98,0.00,,,0.00,Wunderground v.1.13,2013-05-25 12:10:00,
2013-05-25 08:20:00,39.0,38.5,30.32,NNE,16,0.0,0.0,98,0.00,,,0.00,Wunderground v.1.13,2013-05-25 12:20:00,
2013-05-25 08:30:00,39.3,39.0,30.32,NNE,16,0.0,0.0,99,0.00,,,0.00,Wunderground v.1.13,2013-05-25 12:30:00,
2013-05-25 08:40:00,40.0,39.7,30.31,WNW,300,0.0,0.0,99,0.00,,,0.00,Wunderground v.1.13,2013-05-25 12:40:00,
2013-05-25 08:50:00,40.3,40.0,30.31,WNW,300,1.0,1.0,99,0.00,,,0.00,Wunderground v.1.13,2013-05-25 12:50:00,
2013-05-25 09:00:00,40.6,40.3,30.31,WNW,300,1.0,1.0,99,0.00,,,0.00,Wunderground v.1.13,2013-05-25 13:00:00,
2013-05-25 09:09:00,41.2,40.9,30.31,WNW,300,1.0,1.0,99,0.00,,,0.00,Wunderground v.1.13,2013-05-25 13:09:00,
2013-05-25 09:20:00,41.9,41.1,30.31,WNW,300,1.0,1.0,97,0.00,,,0.00,Wunderground v.1.13,2013-05-25 13:20:00,
2013-05-25 09:30:00,42.2,39.8,30.32,WNW,300,1.0,1.0,91,0.00,,,0.00,Wunderground v.1.13,2013-05-25 13:30:00,
2013-05-25 09:40:00,42.7,38.8,30.32,WNW,301,0.0,0.0,86,0.00,,,0.00,Wunderground v.1.13,2013-05-25 13:40:00,
2013-05-25 09:50:00,44.1,39.3,30.32,WSW,250,0.0,1.0,83,0.00,,,0.00,Wunderground v.1.13,2013-05-25 13:50:00,
2013-05-25 10:00:00,45.6,40.4,30.33,WNW,297,1.0,1.0,82,0.00,,,0.00,Wunderground v.1.13,2013-05-25 14:00:00,
2013-05-25 10:10:00,46.3,39.5,30.34,WSW,249,1.0,1.0,77,0.00,,,0.00,Wunderground v.1.13,2013-05-25 14:10:00,
2013-05-25 10:20:00,46.4,39.9,30.33,SW,228,1.0,1.0,78,0.00,,,0.00,Wunderground v.1.13,2013-05-25 14:20:00,
2013-05-25 10:30:00,47.2,39.7,30.33,SW,223,1.0,1.0,75,0.00,,,0.00,Wunderground v.1.13,2013-05-25 14:30:00,
2013-05-25 10:40:00,47.9,40.0,30.33,NW,305,1.0,2.0,74,0.00,,,0.00,Wunderground v.1.13,2013-05-25 14:40:00,
2013-05-25 10:49:00,48.4,40.5,30.33,West,261,1.0,1.0,74,0.00,,,0.00,Wunderground v.1.13,2013-05-25 14:49:00,
2013-05-25 11:00:00,49.5,39.4,30.33,WNW,292,1.0,3.0,68,0.00,,,0.00,Wunderground v.1.13,2013-05-25 15:00:00,
2013-05-25 11:10:00,50.5,39.2,30.33,WNW,288,2.0,2.0,65,0.00,,,0.00,Wunderground v.1.13,2013-05-25 15:10:00,
2013-05-25 11:20:00,51.5,40.9,30.33,WNW,292,2.0,4.0,67,0.00,,,0.00,Wunderground v.1.13,2013-05-25 15:20:00,
2013-05-25 11:29:00,51.9,40.5,30.33,NW,307,1.0,4.0,65,0.00,,,0.00,Wunderground v.1.13,2013-05-25 15:29:00,
2013-05-25 11:30:00,52.0,39.4,30.33,WNW,292,1.0,4.0,62,0.00,,,-99.99,WeatherLink 6.0.2,2013-05-25 15:30:00,
2013-05-25 11:40:00,52.3,39.7,30.32,WNW,292,1.0,1.0,62,0.00,,,0.00,Wunderground v.1.13,2013-05-25 15:40:00,
2013-05-25 11:50:00,53.2,40.1,30.31,WNW,284,0.0,2.0,61,0.00,,,0.00,Wunderground v.1.13,2013-05-25 15:50:00,
2013-05-25 12:00:00,54.3,39.4,30.31,WNW,292,1.0,1.0,57,0.00,,,0.00,Wunderground v.1.13,2013-05-25 16:00:00,
2013-05-25 12:09:00,54.8,41.2,30.31,SSW,200,1.0,2.0,60,0.00,,,0.00,Wunderground v.1.13,2013-05-25 16:09:00,
2013-05-25 12:20:00,54.8,41.6,30.31,West,267,1.0,2.0,61,0.00,,,0.00,Wunderground v.1.13,2013-05-25 16:20:00,
2013-05-25 12:30:00,55.4,42.6,30.31,WNW,300,1.0,2.0,62,0.00,,,0.00,Wunderground v.1.13,2013-05-25 16:30:00,
2013-05-25 12:40:00,56.4,40.0,30.31,WNW,295,2.0,2.0,54,0.00,,,0.00,Wunderground v.1.13,2013-05-25 16:40:00,
2013-05-25 12:50:00,57.0,40.0,30.30,WSW,248,1.0,1.0,53,0.00,,,0.00,Wunderground v.1.13,2013-05-25 16:50:00,
2013-05-25 13:00:00,57.3,39.8,30.29,WNW,294,1.0,1.0,52,0.00,,,0.00,Wunderground v.1.13,2013-05-25 17:00:00,
2013-05-25 13:10:00,56.9,38.9,30.29,WNW,297,2.0,2.0,51,0.00,,,0.00,Wunderground v.1.13,2013-05-25 17:10:00,
2013-05-25 13:20:00,56.9,38.9,30.29,ENE,76,1.0,1.0,51,0.00,,,0.00,Wunderground v.1.13,2013-05-25 17:20:00,
2013-05-25 13:30:00,58.0,38.9,30.29,NW,305,1.0,1.0,49,0.00,,,0.00,Wunderground v.1.13,2013-05-25 17:30:00,
2013-05-25 13:39:00,58.4,40.8,30.28,NW,305,1.0,1.0,52,0.00,,,0.00,Wunderground v.1.13,2013-05-25 17:39:00,
2013-05-25 13:50:00,58.8,39.1,30.28,WNW,298,2.0,2.0,48,0.00,,,0.00,Wunderground v.1.13,2013-05-25 17:50:00,
2013-05-25 14:00:00,58.6,39.5,30.27,WNW,293,2.0,2.0,49,0.00,,,0.00,Wunderground v.1.13,2013-05-25 18:00:00,
2013-05-25 14:09:00,59.0,39.9,30.27,SSW,211,2.0,2.0,49,0.00,,,0.00,Wunderground v.1.13,2013-05-25 18:09:00,
2013-05-25 14:20:00,59.0,40.9,30.27,WNW,292,2.0,2.0,51,0.00,,,0.00,Wunderground v.1.13,2013-05-25 18:20:00,
2013-05-25 14:29:00,59.5,41.9,30.25,South,180,1.0,1.0,52,0.00,,,0.00,Wunderground v.1.13,2013-05-25 18:29:00,
2013-05-25 14:30:00,59.4,40.7,30.25,WNW,292,1.0,4.0,50,0.00,,,-99.99,WeatherLink 6.0.2,2013-05-25 18:30:00,
2013-05-25 14:40:00,60.5,43.3,30.25,WNW,284,2.0,3.0,53,0.00,,,0.00,Wunderground v.1.13,2013-05-25 18:40:00,
2013-05-25 14:50:00,60.7,39.2,30.25,WNW,299,3.0,3.0,45,0.00,,,0.00,Wunderground v.1.13,2013-05-25 18:50:00,
2013-05-25 15:00:00,60.6,40.2,30.25,WNW,286,2.0,2.0,47,0.00,,,0.00,Wunderground v.1.13,2013-05-25 19:00:00,
2013-05-25 15:10:00,61.8,41.9,30.25,WNW,293,2.0,2.0,48,0.00,,,0.00,Wunderground v.1.13,2013-05-25 19:10:00,
2013-05-25 15:20:00,62.1,41.6,30.25,NW,304,1.0,1.0,47,0.00,,,0.00,Wunderground v.1.13,2013-05-25 19:20:00,
2013-05-25 15:30:00,62.5,40.9,30.25,NW,315,1.0,1.0,45,0.00,,,0.00,Wunderground v.1.13,2013-05-25 19:30:00,
2013-05-25 15:40:00,62.8,40.0,30.24,SW,217,1.0,2.0,43,0.00,,,0.00,Wunderground v.1.13,2013-05-25 19:40:00,
2013-05-25 15:49:00,62.9,40.0,30.24,NW,314,3.0,3.0,43,0.00,,,0.00,Wunderground v.1.13,2013-05-25 19:49:00,
2013-05-25 16:00:00,62.7,41.0,30.24,WNW,287,2.0,2.0,45,0.00,,,0.00,Wunderground v.1.13,2013-05-25 20:00:00,
2013-05-25 16:10:00,62.8,38.7,30.23,NNW,327,2.0,4.0,41,0.00,,,0.00,Wunderground v.1.13,2013-05-25 20:10:00,
2013-05-25 16:20:00,62.7,39.9,30.23,West,280,3.0,3.0,43,0.00,,,0.00,Wunderground v.1.13,2013-05-25 20:20:00,
2013-05-25 16:30:00,62.9,39.4,30.23,WNW,297,1.0,2.0,42,0.00,,,0.00,Wunderground v.1.13,2013-05-25 20:30:00,
2013-05-25 16:39:00,62.5,39.1,30.22,NW,306,3.0,3.0,42,0.00,,,0.00,Wunderground v.1.13,2013-05-25 20:39:00,
2013-05-25 16:50:00,62.5,40.3,30.22,WNW,298,3.0,5.0,44,0.00,,,0.00,Wunderground v.1.13,2013-05-25 20:50:00,
2013-05-25 16:59:00,62.1,39.3,30.22,WNW,300,3.0,3.0,43,0.00,,,0.00,Wunderground v.1.13,2013-05-25 20:59:00,
2013-05-25 17:00:00,62.2,38.8,30.22,WNW,292,2.0,6.0,42,0.00,,,-99.99,WeatherLink 6.0.2,2013-05-25 21:00:00,
2013-05-25 17:10:00,62.2,39.4,30.22,West,267,2.0,2.0,43,0.00,,,0.00,Wunderground v.1.13,2013-05-25 21:10:00,
2013-05-25 17:20:00,62.3,39.5,30.22,WNW,289,2.0,2.0,43,0.00,,,0.00,Wunderground v.1.13,2013-05-25 21:20:00,
2013-05-25 17:30:00,62.2,40.6,30.22,WNW,299,1.0,2.0,45,0.00,,,0.00,Wunderground v.1.13,2013-05-25 21:30:00,
2013-05-25 17:40:00,62.5,38.5,30.21,West,269,2.0,2.0,41,0.00,,,0.00,Wunderground v.1.13,2013-05-25 21:40:00,
2013-05-25 17:50:00,62.2,40.0,30.22,WNW,286,1.0,2.0,44,0.00,,,0.00,Wunderground v.1.13,2013-05-25 21:50:00,
2013-05-25 18:00:00,62.0,38.6,30.21,West,269,2.0,2.0,42,0.00,,,0.00,Wunderground v.1.13,2013-05-25 22:00:00,
2013-05-25 18:10:00,61.8,40.8,30.22,WNW,290,1.0,2.0,46,0.00,,,0.00,Wunderground v.1.13,2013-05-25 22:10:00,
2013-05-25 18:20:00,61.7,39.6,30.22,WSW,257,1.0,3.0,44,0.00,,,0.00,Wunderground v.1.13,2013-05-25 22:20:00,
2013-05-25 18:30:00,61.6,39.5,30.22,WNW,291,1.0,1.0,44,0.00,,,0.00,Wunderground v.1.13,2013-05-25 22:30:00,
2013-05-25 18:40:00,61.6,38.3,30.22,WNW,287,1.0,1.0,42,0.00,,,0.00,Wunderground v.1.13,2013-05-25 22:40:00,
2013-05-25 18:50:00,61.6,39.5,30.22,WNW,300,1.0,1.0,44,0.00,,,0.00,Wunderground v.1.13,2013-05-25 22:50:00,
2013-05-25 19:00:00,61.5,40.5,30.22,WNW,284,1.0,1.0,46,0.00,,,0.00,Wunderground v.1.13,2013-05-25 23:00:00,
2013-05-25 19:10:00,61.2,41.9,30.22,WNW,292,1.0,1.0,49,0.00,,,0.00,Wunderground v.1.13,2013-05-25 23:10:00,
2013-05-25 19:20:00,60.9,40.5,30.22,WNW,292,1.0,1.0,47,0.00,,,0.00,Wunderground v.1.13,2013-05-25 23:20:00,
2013-05-25 19:30:00,60.5,40.7,30.22,WNW,292,1.0,1.0,48,0.00,,,0.00,Wunderground v.1.13,2013-05-25 23:30:00,
2013-05-25 19:40:00,60.0,39.7,30.22,West,278,0.0,1.0,47,0.00,,,0.00,Wunderground v.1.13,2013-05-25 23:40:00,
2013-05-25 19:50:00,59.6,39.9,30.21,West,278,1.0,1.0,48,0.00,,,0.00,Wunderground v.1.13,2013-05-25 23:50:00,
2013-05-25 20:00:00,59.3,42.2,30.21,West,278,0.0,0.0,53,0.00,,,0.00,Wunderground v.1.13,2013-05-26 00:00:00,
2013-05-25 20:10:00,58.8,41.7,30.21,West,278,0.0,0.0,53,0.00,,,0.00,Wunderground v.1.13,2013-05-26 00:10:00,
2013-05-25 20:20:00,58.3,41.2,30.21,West,278,0.0,0.0,53,0.00,,,0.00,Wunderground v.1.13,2013-05-26 00:20:00,
2013-05-25 20:29:00,57.8,41.7,30.20,West,278,0.0,0.0,55,0.00,,,0.00,Wunderground v.1.13,2013-05-26 00:29:00,
2013-05-25 20:30:00,57.9,41.8,30.20,North,-999,0.0,0.0,55,0.00,,,-99.99,WeatherLink 6.0.2,2013-05-26 00:30:00,
2013-05-25 20:40:00,57.4,41.8,30.20,West,278,0.0,0.0,56,0.00,,,0.00,Wunderground v.1.13,2013-05-26 00:40:00,
2013-05-25 20:50:00,56.7,42.5,30.20,West,278,0.0,0.0,59,0.00,,,0.00,Wunderground v.1.13,2013-05-26 00:50:00,
2013-05-25 21:00:00,56.0,42.7,30.20,West,278,0.0,0.0,61,0.00,,,0.00,Wunderground v.1.13,2013-05-26 01:00:00,
2013-05-25 21:09:00,55.2,43.2,30.20,West,278,0.0,0.0,64,0.00,,,0.00,Wunderground v.1.13,2013-05-26 01:09:00,
2013-05-25 21:20:00,54.5,43.4,30.20,West,278,0.0,0.0,66,0.00,,,0.00,Wunderground v.1.13,2013-05-26 01:20:00,
2013-05-25 21:30:00,53.7,43.4,30.20,West,278,0.0,0.0,68,0.00,,,0.00,Wunderground v.1.13,2013-05-26 01:30:00,
2013-05-25 21:40:00,53.2,43.7,30.20,West,278,0.0,0.0,70,0.00,,,0.00,Wunderground v.1.13,2013-05-26 01:40:00,
2013-05-25 21:50:00,52.8,43.7,30.21,West,278,0.0,0.0,71,0.00,,,0.00,Wunderground v.1.13,2013-05-26 01:50:00,
2013-05-25 22:00:00,52.3,43.9,30.21,West,278,0.0,0.0,73,0.00,,,0.00,Wunderground v.1.13,2013-05-26 02:00:00,
2013-05-25 22:10:00,51.8,44.5,30.20,West,278,0.0,0.0,76,0.00,,,0.00,Wunderground v.1.13,2013-05-26 02:10:00,
2013-05-25 22:20:00,50.9,43.9,30.21,West,278,0.0,0.0,77,0.00,,,0.00,Wunderground v.1.13,2013-05-26 02:20:00,
2013-05-25 22:30:00,50.2,43.9,30.21,West,278,0.0,0.0,79,0.00,,,0.00,Wunderground v.1.13,2013-05-26 02:30:00,
2013-05-25 22:40:00,50.0,44.1,30.21,West,278,0.0,0.0,80,0.00,,,0.00,Wunderground v.1.13,2013-05-26 02:40:00,
2013-05-25 22:50:00,49.6,44.0,30.21,West,278,0.0,0.0,81,0.00,,,0.00,Wunderground v.1.13,2013-05-26 02:50:00,
2013-05-25 23:00:00,49.3,44.0,30.22,West,278,0.0,0.0,82,0.00,,,0.00,Wunderground v.1.13,2013-05-26 03:00:00,
2013-05-25 23:10:00,49.1,43.8,30.21,West,278,0.0,0.0,82,0.00,,,0.00,Wunderground v.1.13,2013-05-26 03:10:00,
2013-05-25 23:20:00,48.9,44.0,30.21,West,278,0.0,0.0,83,0.00,,,0.00,Wunderground v.1.13,2013-05-26 03:20:00,
2013-05-25 23:29:00,48.4,43.8,30.22,West,278,0.0,0.0,84,0.00,,,0.00,Wunderground v.1.13,2013-05-26 03:29:00,
2013-05-25 23:30:00,48.5,44.2,30.22,North,-999,0.0,0.0,85,0.00,,,-99.99,WeatherLink 6.0.2,2013-05-26 03:30:00,
2013-05-25 23:40:00,48.0,43.7,30.22,West,278,0.0,0.0,85,0.00,,,0.00,Wunderground v.1.13,2013-05-26 03:40:00,
2013-05-25 23:49:00,47.7,43.7,30.22,West,278,0.0,0.0,86,0.00,,,0.00,Wunderground v.1.13,2013-05-26 03:49:00,